Year,Month,Day,Hour,Minute,Value (Times are PST for temperature in C)
2015,05,20,08,58,16.60
2015,05,20,08,59,16.60
2015,05,20,09,00,16.60
2015,05,20,09,01,16.60
2015,05,20,09,02,16.70
2015,05,20,09,03,16.80
2015,05,20,09,04,16.80
2015,05,20,09,05,16.80
2015,05,20,09,06,16.80
2015,05,20,09,07,16.80
2015,05,20,09,08,16.80
2015,05,20,09,09,16.80
2015,05,20,09,10,16.80
2015,05,20,09,11,16.80
2015,05,20,09,12,16.70
2015,05,20,09,13,16.70
2015,05,20,09,14,16.70
2015,05,20,09,15,16.70
2015,05,20,09,16,16.70
2015,05,20,09,17,16.70
2015,05,20,09,18,16.70
2015,05,20,09,19,16.70
2015,05,20,09,20,16.70
2015,05,20,09,21,16.70
2015,05,20,09,22,16.70
2015,05,20,09,23,16.70
2015,05,20,11,37,19.60
2015,05,20,11,38,19.60
2015,05,20,11,39,19.60
2015,05,20,11,40,19.60
2015,05,20,11,41,19.50
2015,05,20,11,42,19.30
2015,05,20,11,43,19.20
2015,05,20,11,44,19.10
2015,05,20,11,45,19.00
2015,05,20,11,46,19.10
2015,05,20,11,47,19.10
2015,05,20,11,48,19.10
2015,05,20,11,49,19.10
2015,05,20,11,50,18.90
2015,05,20,11,51,18.80
2015,05,20,11,52,18.80
2015,05,20,11,53,18.70
2015,05,20,11,54,18.70
2015,05,20,11,55,18.60
2015,05,20,11,56,18.60
2015,05,20,11,57,18.70
2015,05,20,11,58,18.70
2015,05,20,11,59,18.70
2015,05,20,12,00,18.80
2015,05,20,12,01,18.90
2015,05,20,12,02,19.00
2015,05,20,12,03,19.00
2015,05,20,12,04,18.90
2015,05,20,12,05,18.90
2015,05,20,12,06,18.90
2015,05,20,12,07,19.00
2015,05,20,12,08,19.00
2015,05,20,12,09,19.20
2015,05,20,12,10,19.20
2015,05,20,12,11,19.20
2015,05,20,12,12,19.20
2015,05,20,12,13,19.20
2015,05,20,12,14,19.20
2015,05,20,12,15,19.30
2015,05,20,12,16,19.40
2015,05,20,12,17,19.40
2015,05,20,12,18,19.30
2015,05,20,12,19,19.20
2015,05,20,12,20,19.30
2015,05,20,12,21,19.30
2015,05,20,12,22,19.40
2015,05,20,12,23,19.60
2015,05,20,12,24,19.70
2015,05,20,12,25,19.60
2015,05,20,12,26,19.60
2015,05,20,12,27,19.70
2015,05,20,12,28,19.60
2015,05,20,12,29,19.60
2015,05,20,12,30,19.70
2015,05,20,12,31,19.70
2015,05,20,12,32,19.80
2015,05,20,12,33,19.80
2015,05,20,12,34,19.90
2015,05,20,12,35,20.00
2015,05,20,12,36,20.10
2015,05,20,12,37,20.20
2015,05,20,12,38,20.30
2015,05,20,12,39,20.30
2015,05,20,12,40,20.20
2015,05,20,12,41,20.10
2015,05,20,12,42,20.10
2015,05,20,12,43,20.10
2015,05,20,12,44,20.10
2015,05,20,12,45,20.00
2015,05,20,12,46,20.00
2015,05,20,12,47,19.90
2015,05,20,12,48,20.00
2015,05,20,12,49,20.10
2015,05,20,12,50,20.00
2015,05,20,12,51,19.90
2015,05,20,12,52,19.90
2015,05,20,12,53,20.00
2015,05,20,12,54,20.00
2015,05,20,12,55,20.10
2015,05,20,12,56,20.10
2015,05,20,12,57,20.20
2015,05,20,12,58,20.20
2015,05,20,12,59,20.20
2015,05,20,13,00,20.10
2015,05,20,13,01,20.10
2015,05,20,13,02,20.00
2015,05,20,13,03,19.90
2015,05,20,13,04,19.90
2015,05,20,13,05,19.90
2015,05,20,13,06,19.90
2015,05,20,13,07,19.90
2015,05,20,13,08,19.90
2015,05,20,13,09,19.90
2015,05,20,13,10,19.90
2015,05,20,13,11,20.00
2015,05,20,13,12,20.10
2015,05,20,13,13,20.20
2015,05,20,13,14,20.30
2015,05,20,13,15,20.40
2015,05,20,13,16,20.50
2015,05,20,13,17,20.60
2015,05,20,13,18,20.60
2015,05,20,13,19,20.60
2015,05,20,13,20,20.70
2015,05,20,13,21,20.90
2015,05,20,13,22,21.00
2015,05,20,13,23,21.20
2015,05,20,13,24,21.30
2015,05,20,13,25,21.40
2015,05,20,13,26,21.50
2015,05,20,13,27,21.60
2015,05,20,13,28,21.70
2015,05,20,13,29,21.80
2015,05,20,13,30,21.90
2015,05,20,13,31,22.00
2015,05,20,13,32,22.10
2015,05,20,13,33,22.20
2015,05,20,13,34,22.30
2015,05,20,13,35,22.40
2015,05,20,13,36,22.50
2015,05,20,13,37,22.50
2015,05,20,13,38,22.60
2015,05,20,13,39,22.60
2015,05,20,13,40,22.60
2015,05,20,13,41,22.70
2015,05,20,13,42,22.70
2015,05,20,13,43,22.60
2015,05,20,13,44,22.50
2015,05,20,13,45,22.50
2015,05,20,13,46,22.40
2015,05,20,13,47,22.30
2015,05,20,13,48,22.20
2015,05,20,13,49,22.10
2015,05,20,13,50,22.10
2015,05,20,13,51,21.90
2015,05,20,13,52,21.90
2015,05,20,13,53,21.80
2015,05,20,13,54,21.90
2015,05,20,13,55,21.90
2015,05,20,13,56,22.00
2015,05,20,13,57,22.00
2015,05,20,13,58,22.00
2015,05,20,13,59,21.90
2015,05,20,14,00,21.90
2015,05,20,14,01,22.00
2015,05,20,14,02,22.00
2015,05,20,14,03,22.10
2015,05,20,14,04,22.20
2015,05,20,14,05,22.20
2015,05,20,14,06,22.30
2015,05,20,14,07,22.40
2015,05,20,14,08,22.30
2015,05,20,14,09,22.20
2015,05,20,14,10,22.10
2015,05,20,14,11,22.10
2015,05,20,14,12,22.20
2015,05,20,14,13,22.30
2015,05,20,14,14,22.30
2015,05,20,14,15,22.40
2015,05,20,14,16,22.50
2015,05,20,14,17,22.50
2015,05,20,14,18,22.60
2015,05,20,14,19,22.50
2015,05,20,14,20,22.50
2015,05,20,14,21,22.50
2015,05,20,14,22,22.50
2015,05,20,14,23,22.50
2015,05,20,14,24,22.30
2015,05,20,14,25,22.30
2015,05,20,14,26,22.30
2015,05,20,14,27,22.30
2015,05,20,14,28,22.40
2015,05,20,14,29,22.50
2015,05,20,14,30,22.50
2015,05,20,14,31,22.60
2015,05,20,14,32,22.60
2015,05,20,14,33,22.60
2015,05,20,14,34,22.70
2015,05,20,14,35,22.80
2015,05,20,14,36,22.80
2015,05,20,14,37,22.80
2015,05,20,14,38,22.80
2015,05,20,14,39,22.90
2015,05,20,14,40,22.80
2015,05,20,14,41,22.80
2015,05,20,14,42,22.80
2015,05,20,14,43,22.90
2015,05,20,14,44,22.90
2015,05,20,14,45,22.90
2015,05,20,14,46,23.00
2015,05,20,14,47,22.90
2015,05,20,14,48,22.80
2015,05,20,14,49,22.70
2015,05,20,14,50,22.70
2015,05,20,14,51,22.80
2015,05,20,14,52,22.90
2015,05,20,14,53,23.10
2015,05,20,14,54,23.20
2015,05,20,14,55,23.20
2015,05,20,14,56,23.10
2015,05,20,14,57,23.10
2015,05,20,14,58,23.10
2015,05,20,14,59,23.00
2015,05,20,15,00,22.90
2015,05,20,15,01,22.80
2015,05,20,15,02,22.80
2015,05,20,15,03,22.90
2015,05,20,15,04,22.80
2015,05,20,15,05,22.70
2015,05,20,15,06,22.60
2015,05,20,15,07,22.60
2015,05,20,15,08,22.50
2015,05,20,15,09,22.50
2015,05,20,15,10,22.60
2015,05,20,15,11,22.70
2015,05,20,15,12,22.70
2015,05,20,15,13,22.80
2015,05,20,15,14,22.90
2015,05,20,15,15,23.00
2015,05,20,15,16,23.00
2015,05,20,15,17,22.90
2015,05,20,15,18,22.90
2015,05,20,15,19,22.90
2015,05,20,15,20,22.90
2015,05,20,15,21,23.00
2015,05,20,15,22,23.00
2015,05,20,15,23,23.00
2015,05,20,15,24,23.10
2015,05,20,15,25,23.10
2015,05,20,15,26,23.10
2015,05,20,15,27,23.20
2015,05,20,15,28,23.30
2015,05,20,15,29,23.30
2015,05,20,15,30,23.30
2015,05,20,15,31,23.30
2015,05,20,15,32,23.40
2015,05,20,15,33,23.40
2015,05,20,15,34,23.40
2015,05,20,15,35,23.40
2015,05,20,15,36,23.40
2015,05,20,15,37,23.50
2015,05,20,15,38,23.60
2015,05,20,15,39,23.70
2015,05,20,15,40,23.80
2015,05,20,15,41,23.80
2015,05,20,15,42,23.90
2015,05,20,15,43,23.90
2015,05,20,15,44,23.90
2015,05,20,15,45,23.90
2015,05,20,15,46,23.90
2015,05,20,15,47,23.80
2015,05,20,15,48,23.70
2015,05,20,15,49,23.60
2015,05,20,15,50,23.60
2015,05,20,15,51,23.60
2015,05,20,15,52,23.60
2015,05,20,15,53,23.60
2015,05,20,15,54,23.60
2015,05,20,15,55,23.60
2015,05,20,15,56,23.70
2015,05,20,15,57,23.80
2015,05,20,15,58,23.90
2015,05,20,15,59,24.00
2015,05,20,16,00,24.10
2015,05,20,16,01,24.10
2015,05,20,16,02,24.10
2015,05,20,16,03,24.10
2015,05,20,16,04,24.10
2015,05,20,16,05,24.10
2015,05,20,16,06,24.10
2015,05,20,16,07,24.10
2015,05,20,16,08,24.00
2015,05,20,16,09,23.90
2015,05,20,16,10,23.80
2015,05,20,16,11,23.80
2015,05,20,16,12,23.90
2015,05,20,16,13,24.00
2015,05,20,16,14,24.10
2015,05,20,16,15,24.20
2015,05,20,16,16,24.30
2015,05,20,16,17,24.40
2015,05,20,16,18,24.40
2015,05,20,16,19,24.40
2015,05,20,16,20,24.40
2015,05,20,16,21,24.40
2015,05,20,16,22,24.40
2015,05,20,16,23,24.40
2015,05,20,16,24,24.50
2015,05,20,16,25,24.50
2015,05,20,16,26,24.60
2015,05,20,16,27,24.60
2015,05,20,16,28,24.60
2015,05,20,16,29,24.60
2015,05,20,16,30,24.60
2015,05,20,16,31,24.50
2015,05,20,16,32,24.50
2015,05,20,16,33,24.40
2015,05,20,16,34,24.30
2015,05,20,16,35,24.30
2015,05,20,16,36,24.40
2015,05,20,16,37,24.40
2015,05,20,16,38,24.50
2015,05,20,16,39,24.60
2015,05,20,16,40,24.60
2015,05,20,16,41,24.60
2015,05,20,16,42,24.50
2015,05,20,16,43,24.60
2015,05,20,16,44,24.60
2015,05,20,16,45,24.60
2015,05,20,16,46,24.70
2015,05,20,16,47,24.80
2015,05,20,16,48,24.80
2015,05,20,16,49,24.80
2015,05,20,16,50,24.80
2015,05,20,16,51,24.80
2015,05,20,16,52,24.70
2015,05,20,16,53,24.70
2015,05,20,16,54,24.60
2015,05,20,16,55,24.60
2015,05,20,16,56,24.70
2015,05,20,16,57,24.70
2015,05,20,16,58,24.70
2015,05,20,16,59,24.70
2015,05,20,17,00,24.70
2015,05,20,17,01,24.80
2015,05,20,17,02,24.90
2015,05,20,17,03,24.90
2015,05,20,17,04,24.90
2015,05,20,17,05,24.90
2015,05,20,17,06,24.90
2015,05,20,17,07,25.00
2015,05,20,17,08,25.10
2015,05,20,17,09,25.20
2015,05,20,17,10,25.20
2015,05,20,17,11,25.20
2015,05,20,17,12,25.20
2015,05,20,17,13,25.10
2015,05,20,17,14,25.10
2015,05,20,17,15,25.10
2015,05,20,17,16,25.10
2015,05,20,17,17,25.10
2015,05,20,17,18,25.10
2015,05,20,17,19,25.10
2015,05,20,17,20,25.10
2015,05,20,17,21,25.10
2015,05,20,17,22,25.10
2015,05,20,17,23,25.10
2015,05,20,17,24,25.10
2015,05,20,17,40,25.40
2015,05,20,17,41,25.40
2015,05,20,17,42,25.40
2015,05,20,17,43,25.40
2015,05,20,17,44,25.40
2015,05,20,17,45,25.40
2015,05,20,17,46,25.40
2015,05,20,17,47,25.40
2015,05,20,17,48,25.40
2015,05,20,17,49,25.40
2015,05,20,17,50,25.40
2015,05,20,17,51,25.40
